Location: Oberkirch
(48.5323°N, 8.0787°E)
Time: 14:50:59
(UTC+00:00)

S-56A Canister/Altair - Pass Details

Date: 18 February 2026
Orbit: 633 x 2484 km, 38.9° (Epoch: 7 March)

Event Time Altitude Azimuth Distance (km) Brightness Sun altitude
Exits shadow 02:55:12 37° 168° (SSE) 2,451 9.8 -35.6°
Drops below altitude 10° 03:03:51 10° 130° (SE) 4,557 11.7 -34.3°
Sets 03:08:16 0° 124° (SE) 5,789 12.4 -33.6°
